TANAGER-1

Last updated on Mon Sep 16 2024 00:02:03 GMT+0000 (Coordinated Universal Time)

1 60507U 24149AR 24258.89374238 .00018915 00000+0 90693-3 0 9996 2 60507 97.4403 334.0105 0005561 48.6683 311.5029 15.18934254 4417
UTC large
Height (km)
Speed (km/s)
/
Latitude / Longitude
Inclination (degrees)
Orbital Period (minutes)
Azimuth
Elevation
Range (km)
Doppler Factor

Next 0 passes for location: London (51.5072 / 0.1276)

Sorry there are no passes over London.